Time,TemperatureF,DewpointF,PressureIn,WindDirection,WindDirectionDegrees,WindSpeedMPH,WindSpeedGustMPH,Humidity,HourlyPrecipIn,Conditions,Clouds,dailyrainin,SoftwareType,DateUTC
2013-11-13 00:09:00,67.9,34.0,30.22,NNE,28,0.0,-999.0,29,-99.99,,,0.00,weatherlink.com 1.10,2013-11-13 08:09:00,
2013-11-13 00:24:00,67.6,32.0,30.21,NNE,23,0.0,-999.0,27,-99.99,,,0.00,weatherlink.com 1.10,2013-11-13 08:24:00,
2013-11-13 00:39:00,67.7,31.0,30.21,NNE,21,4.0,-999.0,26,-99.99,,,0.00,weatherlink.com 1.10,2013-11-13 08:39:00,
2013-11-13 00:54:00,67.7,31.0,30.21,NE,34,0.0,-999.0,26,-99.99,,,0.00,weatherlink.com 1.10,2013-11-13 08:54:00,
2013-11-13 01:09:00,67.6,31.0,30.21,North,5,0.0,-999.0,26,-99.99,,,0.00,weatherlink.com 1.10,2013-11-13 09:09:00,
2013-11-13 01:24:00,67.3,33.0,30.21,NNE,30,0.0,-999.0,28,-99.99,,,0.00,weatherlink.com 1.10,2013-11-13 09:24:00,
2013-11-13 01:39:00,67.0,31.0,30.21,NNE,30,0.0,-999.0,26,-99.99,,,0.00,weatherlink.com 1.10,2013-11-13 09:39:00,
2013-11-13 01:54:00,67.2,31.0,30.21,ENE,67,1.0,-999.0,26,-99.99,,,0.00,weatherlink.com 1.10,2013-11-13 09:54:00,
2013-11-13 02:09:00,67.2,31.0,30.20,NNE,14,0.0,-999.0,26,-99.99,,,0.00,weatherlink.com 1.10,2013-11-13 10:09:00,
2013-11-13 02:24:00,67.1,31.0,30.20,NNE,25,0.0,-999.0,26,-99.99,,,0.00,weatherlink.com 1.10,2013-11-13 10:24:00,
2013-11-13 02:39:00,66.6,31.0,30.19,ENE,57,0.0,-999.0,27,-99.99,,,0.00,weatherlink.com 1.10,2013-11-13 10:39:00,
2013-11-13 02:54:00,66.3,32.0,30.19,NE,55,0.0,-999.0,28,-99.99,,,0.00,weatherlink.com 1.10,2013-11-13 10:54:00,
2013-11-13 03:09:00,66.9,32.0,30.18,NE,56,0.0,-999.0,27,-99.99,,,0.00,weatherlink.com 1.10,2013-11-13 11:09:00,
2013-11-13 03:24:00,67.4,31.0,30.18,NE,45,4.0,-999.0,26,-99.99,,,0.00,weatherlink.com 1.10,2013-11-13 11:24:00,
2013-11-13 03:39:00,67.3,32.0,30.17,ENE,59,0.0,-999.0,27,-99.99,,,0.00,weatherlink.com 1.10,2013-11-13 11:39:00,
2013-11-13 03:54:00,67.0,32.0,30.17,NNW,329,0.0,-999.0,27,-99.99,,,0.00,weatherlink.com 1.10,2013-11-13 11:54:00,
2013-11-13 04:09:00,66.6,31.0,30.17,WNW,284,2.0,-999.0,27,-99.99,,,0.00,weatherlink.com 1.10,2013-11-13 12:09:00,
2013-11-13 04:24:00,66.6,31.0,30.17,NE,44,0.0,-999.0,27,-99.99,,,0.00,weatherlink.com 1.10,2013-11-13 12:24:00,
2013-11-13 04:39:00,66.0,33.0,30.17,NE,44,0.0,-999.0,29,-99.99,,,0.00,weatherlink.com 1.10,2013-11-13 12:39:00,
2013-11-13 04:54:00,64.8,33.0,30.17,NW,319,0.0,-999.0,31,-99.99,,,0.00,weatherlink.com 1.10,2013-11-13 12:54:00,
2013-11-13 05:09:00,64.4,32.0,30.16,NW,319,0.0,-999.0,30,-99.99,,,0.00,weatherlink.com 1.10,2013-11-13 13:09:00,
2013-11-13 05:24:00,65.0,32.0,30.17,West,263,0.0,-999.0,29,-99.99,,,0.00,weatherlink.com 1.10,2013-11-13 13:24:00,
2013-11-13 05:39:00,65.7,32.0,30.16,East,92,0.0,-999.0,28,-99.99,,,0.00,weatherlink.com 1.10,2013-11-13 13:39:00,
2013-11-13 05:54:00,66.2,32.0,30.16,NE,38,0.0,-999.0,28,-99.99,,,0.00,weatherlink.com 1.10,2013-11-13 13:54:00,
2013-11-13 06:09:00,65.6,32.0,30.17,NE,38,0.0,-999.0,29,-99.99,,,0.00,weatherlink.com 1.10,2013-11-13 14:09:00,
2013-11-13 06:24:00,65.3,32.0,30.17,ENE,63,0.0,-999.0,29,-99.99,,,0.00,weatherlink.com 1.10,2013-11-13 14:24:00,
2013-11-13 06:39:00,64.9,33.0,30.18,ENE,63,0.0,-999.0,30,-99.99,,,0.00,weatherlink.com 1.10,2013-11-13 14:39:00,
2013-11-13 06:54:00,64.7,32.0,30.18,NNE,14,0.0,-999.0,30,-99.99,,,0.00,weatherlink.com 1.10,2013-11-13 14:54:00,
2013-11-13 07:09:00,64.9,32.0,30.18,NNE,14,0.0,-999.0,29,-99.99,,,0.00,weatherlink.com 1.10,2013-11-13 15:09:00,
2013-11-13 07:24:00,65.5,32.0,30.18,ENE,70,0.0,-999.0,29,-99.99,,,0.00,weatherlink.com 1.10,2013-11-13 15:24:00,
2013-11-13 07:39:00,67.4,32.0,30.19,ENE,70,0.0,-999.0,27,-99.99,,,0.00,weatherlink.com 1.10,2013-11-13 15:39:00,
2013-11-13 07:54:00,68.8,31.0,30.19,ENE,69,0.0,-999.0,25,-99.99,,,0.00,weatherlink.com 1.10,2013-11-13 15:54:00,
2013-11-13 08:09:00,70.3,33.0,30.20,ENE,70,0.0,-999.0,25,-99.99,,,0.00,weatherlink.com 1.10,2013-11-13 16:09:00,
2013-11-13 08:24:00,71.5,32.0,30.20,SSW,208,0.0,-999.0,23,-99.99,,,0.00,weatherlink.com 1.10,2013-11-13 16:24:00,
2013-11-13 08:39:00,70.5,34.0,30.20,SSW,213,0.0,-999.0,26,-99.99,,,0.00,weatherlink.com 1.10,2013-11-13 16:39:00,
2013-11-13 08:54:00,72.2,33.0,30.20,SW,219,0.0,-999.0,24,-99.99,,,0.00,weatherlink.com 1.10,2013-11-13 16:54:00,
2013-11-13 09:09:00,75.4,33.0,30.20,SE,127,4.0,-999.0,21,-99.99,,,0.00,weatherlink.com 1.10,2013-11-13 17:09:00,
2013-11-13 09:24:00,75.8,33.0,30.20,ESE,114,0.0,-999.0,21,-99.99,,,0.00,weatherlink.com 1.10,2013-11-13 17:24:00,
2013-11-13 09:39:00,77.1,33.0,30.20,NW,324,0.0,-999.0,20,-99.99,,,0.00,weatherlink.com 1.10,2013-11-13 17:39:00,
2013-11-13 09:54:00,78.2,35.0,30.20,NNW,333,0.0,-999.0,21,-99.99,,,0.00,weatherlink.com 1.10,2013-11-13 17:54:00,
2013-11-13 10:09:00,78.0,36.0,30.20,ESE,105,0.0,-999.0,22,-99.99,,,0.00,weatherlink.com 1.10,2013-11-13 18:09:00,
2013-11-13 10:24:00,79.2,33.0,30.20,ENE,63,0.0,-999.0,19,-99.99,,,0.00,weatherlink.com 1.10,2013-11-13 18:24:00,
2013-11-13 10:39:00,80.8,36.0,30.19,ESE,107,6.0,-999.0,20,-99.99,,,0.00,weatherlink.com 1.10,2013-11-13 18:39:00,
2013-11-13 10:54:00,80.7,37.0,30.18,NE,41,6.0,-999.0,21,-99.99,,,0.00,weatherlink.com 1.10,2013-11-13 18:54:00,
2013-11-13 11:09:00,80.2,38.0,30.16,NNW,338,5.0,-999.0,22,-99.99,,,0.00,weatherlink.com 1.10,2013-11-13 19:09:00,
2013-11-13 11:24:00,81.2,38.0,30.16,ENE,63,1.0,-999.0,21,-99.99,,,0.00,weatherlink.com 1.10,2013-11-13 19:24:00,
2013-11-13 11:39:00,79.5,39.0,30.15,SE,130,0.0,-999.0,23,-99.99,,,0.00,weatherlink.com 1.10,2013-11-13 19:39:00,
2013-11-13 11:54:00,79.8,38.0,30.15,NE,35,0.0,-999.0,22,-99.99,,,0.00,weatherlink.com 1.10,2013-11-13 19:54:00,
2013-11-13 12:09:00,80.2,38.0,30.13,ESE,111,0.0,-999.0,22,-99.99,,,0.00,weatherlink.com 1.10,2013-11-13 20:09:00,
2013-11-13 12:24:00,80.3,37.0,30.13,South,180,0.0,-999.0,21,-99.99,,,0.00,weatherlink.com 1.10,2013-11-13 20:24:00,
2013-11-13 12:39:00,82.4,39.0,30.12,ENE,72,1.0,-999.0,21,-99.99,,,0.00,weatherlink.com 1.10,2013-11-13 20:39:00,
2013-11-13 12:54:00,79.2,41.0,30.12,West,259,0.0,-999.0,26,-99.99,,,0.00,weatherlink.com 1.10,2013-11-13 20:54:00,
2013-11-13 13:09:00,78.8,41.0,30.11,WSW,252,0.0,-999.0,26,-99.99,,,0.00,weatherlink.com 1.10,2013-11-13 21:09:00,
2013-11-13 13:24:00,77.9,41.0,30.11,West,265,0.0,-999.0,27,-99.99,,,0.00,weatherlink.com 1.10,2013-11-13 21:24:00,
2013-11-13 13:39:00,77.4,42.0,30.10,SW,225,0.0,-999.0,28,-99.99,,,0.00,weatherlink.com 1.10,2013-11-13 21:39:00,
2013-11-13 13:54:00,77.7,43.0,30.10,SW,225,0.0,-999.0,29,-99.99,,,0.00,weatherlink.com 1.10,2013-11-13 21:54:00,
2013-11-13 14:09:00,78.0,43.0,30.09,WSW,240,0.0,-999.0,29,-99.99,,,0.00,weatherlink.com 1.10,2013-11-13 22:09:00,
2013-11-13 14:24:00,77.7,44.0,30.09,WSW,240,0.0,-999.0,30,-99.99,,,0.00,weatherlink.com 1.10,2013-11-13 22:24:00,
2013-11-13 14:39:00,79.6,44.0,30.09,NNE,32,0.0,-999.0,28,-99.99,,,0.00,weatherlink.com 1.10,2013-11-13 22:39:00,
2013-11-13 14:54:00,81.0,42.0,30.09,ENE,71,0.0,-999.0,25,-99.99,,,0.00,weatherlink.com 1.10,2013-11-13 22:54:00,
2013-11-13 15:09:00,79.4,42.0,30.09,NE,41,11.0,-999.0,26,-99.99,,,0.00,weatherlink.com 1.10,2013-11-13 23:09:00,
2013-11-13 15:24:00,78.1,40.0,30.09,NNE,19,1.0,-999.0,26,-99.99,,,0.00,weatherlink.com 1.10,2013-11-13 23:24:00,
2013-11-13 15:39:00,76.6,40.0,30.09,WNW,299,0.0,-999.0,27,-99.99,,,0.00,weatherlink.com 1.10,2013-11-13 23:39:00,
2013-11-13 15:54:00,75.1,40.0,30.09,NNE,14,0.0,-999.0,28,-99.99,,,0.00,weatherlink.com 1.10,2013-11-13 23:54:00,
2013-11-13 16:09:00,74.3,40.0,30.09,NE,55,0.0,-999.0,29,-99.99,,,0.00,weatherlink.com 1.10,2013-11-14 00:09:00,
2013-11-13 16:24:00,73.5,38.0,30.09,NE,49,1.0,-999.0,28,-99.99,,,0.00,weatherlink.com 1.10,2013-11-14 00:24:00,
2013-11-13 16:39:00,72.0,38.0,30.09,NE,34,1.0,-999.0,29,-99.99,,,0.00,weatherlink.com 1.10,2013-11-14 00:39:00,
2013-11-13 16:54:00,70.8,38.0,30.10,NE,42,0.0,-999.0,30,-99.99,,,0.00,weatherlink.com 1.10,2013-11-14 00:54:00,
2013-11-13 17:09:00,69.4,38.0,30.09,NE,41,2.0,-999.0,32,-99.99,,,0.00,weatherlink.com 1.10,2013-11-14 01:09:00,
2013-11-13 17:24:00,68.6,38.0,30.09,North,360,3.0,-999.0,33,-99.99,,,0.00,weatherlink.com 1.10,2013-11-14 01:24:00,
2013-11-13 17:39:00,68.3,38.0,30.09,North,9,1.0,-999.0,33,-99.99,,,0.00,weatherlink.com 1.10,2013-11-14 01:39:00,
2013-11-13 17:54:00,68.1,38.0,30.09,NNW,348,7.0,-999.0,33,-99.99,,,0.00,weatherlink.com 1.10,2013-11-14 01:54:00,
2013-11-13 18:09:00,68.0,37.0,30.09,NE,53,1.0,-999.0,32,-99.99,,,0.00,weatherlink.com 1.10,2013-11-14 02:09:00,
2013-11-13 18:24:00,67.9,35.0,30.09,NNE,28,0.0,-999.0,30,-99.99,,,0.00,weatherlink.com 1.10,2013-11-14 02:24:00,
2013-11-13 18:39:00,67.7,36.0,30.08,NE,44,4.0,-999.0,31,-99.99,,,0.00,weatherlink.com 1.10,2013-11-14 02:39:00,
2013-11-13 18:54:00,67.7,36.0,30.09,NNE,33,2.0,-999.0,31,-99.99,,,0.00,weatherlink.com 1.10,2013-11-14 02:54:00,
2013-11-13 19:09:00,67.0,37.0,30.09,ENE,65,1.0,-999.0,33,-99.99,,,0.00,weatherlink.com 1.10,2013-11-14 03:09:00,
2013-11-13 19:24:00,66.7,37.0,30.09,NE,51,6.0,-999.0,33,-99.99,,,0.00,weatherlink.com 1.10,2013-11-14 03:24:00,
2013-11-13 19:39:00,67.2,37.0,30.09,North,5,10.0,-999.0,33,-99.99,,,0.00,weatherlink.com 1.10,2013-11-14 03:39:00,
2013-11-13 19:54:00,67.1,37.0,30.09,North,355,3.0,-999.0,33,-99.99,,,0.00,weatherlink.com 1.10,2013-11-14 03:54:00,
2013-11-13 20:09:00,66.6,36.0,30.09,North,9,2.0,-999.0,33,-99.99,,,0.00,weatherlink.com 1.10,2013-11-14 04:09:00,
2013-11-13 20:24:00,67.0,37.0,30.08,NE,48,0.0,-999.0,33,-99.99,,,0.00,weatherlink.com 1.10,2013-11-14 04:24:00,
2013-11-13 20:39:00,67.3,39.0,30.08,ENE,72,0.0,-999.0,35,-99.99,,,0.00,weatherlink.com 1.10,2013-11-14 04:39:00,
2013-11-13 20:55:00,67.5,38.0,30.09,NE,56,0.0,-999.0,34,-99.99,,,0.00,weatherlink.com 1.10,2013-11-14 04:55:00,
2013-11-13 21:09:00,66.9,38.0,30.09,ENE,75,0.0,-999.0,34,-99.99,,,0.00,weatherlink.com 1.10,2013-11-14 05:09:00,
2013-11-13 21:24:00,66.7,37.0,30.08,ENE,75,0.0,-999.0,34,-99.99,,,0.00,weatherlink.com 1.10,2013-11-14 05:24:00,
2013-11-13 21:39:00,66.3,38.0,30.08,NNE,19,0.0,-999.0,35,-99.99,,,0.00,weatherlink.com 1.10,2013-11-14 05:39:00,
2013-11-13 21:54:00,66.8,38.0,30.08,East,83,0.0,-999.0,35,-99.99,,,0.00,weatherlink.com 1.10,2013-11-14 05:54:00,
2013-11-13 22:09:00,66.9,39.0,30.09,East,88,0.0,-999.0,36,-99.99,,,0.00,weatherlink.com 1.10,2013-11-14 06:09:00,
2013-11-13 22:24:00,66.6,38.0,30.10,ENE,63,1.0,-999.0,35,-99.99,,,0.00,weatherlink.com 1.10,2013-11-14 06:24:00,
2013-11-13 22:39:00,66.6,38.0,30.10,NE,49,0.0,-999.0,35,-99.99,,,0.00,weatherlink.com 1.10,2013-11-14 06:39:00,
2013-11-13 22:54:00,66.2,37.0,30.10,NE,49,0.0,-999.0,34,-99.99,,,0.00,weatherlink.com 1.10,2013-11-14 06:54:00,
2013-11-13 23:09:00,66.3,35.0,30.10,NE,49,2.0,-999.0,32,-99.99,,,0.00,weatherlink.com 1.10,2013-11-14 07:09:00,
2013-11-13 23:24:00,66.1,35.0,30.10,North,10,0.0,-999.0,32,-99.99,,,0.00,weatherlink.com 1.10,2013-11-14 07:24:00,
2013-11-13 23:39:00,66.7,35.0,30.10,NNE,22,0.0,-999.0,31,-99.99,,,0.00,weatherlink.com 1.10,2013-11-14 07:39:00,
2013-11-13 23:54:00,67.0,36.0,30.09,NNE,28,0.0,-999.0,32,-99.99,,,0.00,weatherlink.com 1.10,2013-11-14 07:54:00,